Weather History for Schleswig Jagel, Germany

Change the Weather History Date:

Wednesday, February 13, 2013

  Actual Average (EKSB) Record (EKSB)
Temperature  
Mean Temperature 28 °F -  
Max Temperature 32 °F 39 °F 48 °F (1998)
Min Temperature 23 °F 31 °F 8 °F (1999)
Degree Days  
Heating Degree Days 38    
Moisture  
Dew Point 24 °F    
Average Humidity 84    
Maximum Humidity 100    
Minimum Humidity 69    
Precipitation  
Precipitation 0.00 in - - ()
Sea Level Pressure  
Sea Level Pressure 30.25 in    
Wind  
Wind Speed 3 mph ()    
Max Wind Speed 6 mph    
Max Gust Speed -    
Visibility 5.9 miles    
Events      
Averages and records for this station are not official NWS values.
T = Trace of Precipitation, MM = Missing Value Source: Averaged Metar Reports

Daily Weather History Graph

Daily Weather History Graph

Search for Another Location

Airport:

Trip Planner

Search our weather history database for the weather conditions in past years. The results will help you decide how hot, cold, wet, or windy it might be!

Date:

Astronomy

Feb. 13, 2013 Rise Set
Actual Time 7:47 AM CET 5:26 PM CET
Civil Twilight 7:09 AM CET 6:03 PM CET
Nautical Twilight 6:27 AM CET 6:45 PM CET
Astronomical Twilight 5:46 AM CET 7:26 PM CET
Moon 8:27 AM CET (2/13) 9:58 PM CET (2/13)
Length of Visible Light 10h 53m
Length of Day
9h 38m
Waxing Crescent, 12% of the Moon is Illuminated
Feb 13
Waxing Crescent
Feb 17
First Quarter
Feb 25
Full
Mar 4
Last Quarter
Mar 11
New

Hourly Weather History & Observations

Time (CET) Temp. Windchill Dew Point Humidity Pressure Visibility Wind Dir Wind Speed Gust Speed Precip Events Conditions
12:20 AM 24.8 °F 20.5 °F 23.0 °F 93% 30.12 in 5.0 mi North 3.5 mph - N/A   Mostly Cloudy
1:20 AM 24.8 °F 20.5 °F 23.0 °F 93% 30.12 in 5.0 mi North 3.5 mph - N/A   Mostly Cloudy
2:20 AM 23.0 °F 18.4 °F 23.0 °F 100% 30.15 in 5.0 mi NW 3.5 mph - N/A   Mostly Cloudy
3:20 AM 26.6 °F 21.2 °F 24.8 °F 93% 30.15 in 5.0 mi North 4.6 mph - N/A   Mostly Cloudy
4:20 AM 26.6 °F 20.0 °F 24.8 °F 93% 30.18 in 6.2 mi North 5.8 mph - N/A   Mostly Cloudy
5:20 AM 26.6 °F 22.6 °F 24.8 °F 93% 30.18 in 6.2 mi NNE 3.5 mph - N/A   Mostly Cloudy
6:20 AM 26.6 °F - 24.8 °F 93% 30.18 in 5.6 mi NNE 2.3 mph - N/A   Mostly Cloudy
7:20 AM 26.6 °F 22.6 °F 24.8 °F 93% 30.21 in 5.6 mi NW 3.5 mph - N/A   Mostly Cloudy
8:20 AM 26.6 °F 22.6 °F 24.8 °F 93% 30.24 in 5.6 mi WNW 3.5 mph - N/A   Mostly Cloudy
9:20 AM 28.4 °F - 24.8 °F 86% 30.24 in 5.6 mi North 2.3 mph - N/A   Mostly Cloudy
10:20 AM 30.2 °F - 26.6 °F 86% 30.27 in 6.2 mi Calm Calm - N/A   Mostly Cloudy
11:20 AM 30.2 °F - 24.8 °F 80% 30.27 in 6.2 mi West 2.3 mph - N/A   Mostly Cloudy
12:20 PM 30.2 °F - 24.8 °F 80% 30.30 in 6.2 mi WSW 2.3 mph - N/A   Mostly Cloudy
1:20 PM 30.2 °F 26.7 °F 24.8 °F 80% 30.30 in 6.2 mi NNW 3.5 mph - N/A   Mostly Cloudy
2:20 PM 32.0 °F - 23.0 °F 69% 30.30 in 6.2 mi Variable 1.2 mph - N/A   Mostly Cloudy
3:20 PM 32.0 °F 28.7 °F 23.0 °F 69% 30.30 in 6.2 mi WSW 3.5 mph - N/A   Mostly Cloudy
4:20 PM 32.0 °F - 23.0 °F 69% 30.30 in 6.2 mi Variable 1.2 mph - N/A   Mostly Cloudy
5:20 PM 30.2 °F - 23.0 °F 75% 30.33 in 6.2 mi South 2.3 mph - N/A   Mostly Cloudy
6:20 PM 30.2 °F 26.7 °F 23.0 °F 75% 30.33 in 6.2 mi South 3.5 mph - N/A   Mostly Cloudy
7:20 PM 30.2 °F - 23.0 °F 75% 30.33 in 6.2 mi South 2.3 mph - N/A   Mostly Cloudy
8:20 PM 30.2 °F 26.7 °F 23.0 °F 75% 30.33 in 6.2 mi SSE 3.5 mph - N/A   Mostly Cloudy
9:20 PM 30.2 °F 26.7 °F 24.8 °F 80% 30.33 in 6.2 mi SSE 3.5 mph - N/A   Mostly Cloudy
10:20 PM 28.4 °F 24.6 °F 24.8 °F 86% 30.33 in 6.2 mi SSE 3.5 mph - N/A   Scattered Clouds
11:20 PM 28.4 °F 23.3 °F 24.8 °F 86% 30.33 in 6.2 mi SE 4.6 mph - N/A   Mostly Cloudy